Regional Weather Roundup
Issued by NWS

Home | Current Version | Previous Version | Graphics & Text | Print | Product List | Glossary On
Versions: 1 2 3 4 5 6 7 8 9 10 11 12 13 14 15 16 17 18 19 20 21 22 23 24 25 26 27 28 29 30 31 32 33 34 35 36 37 38 39 40 41 42 43 44 45 46 47 48 49 50
000
ASUS43 KLSX 301607
RWRMO

WEATHER SUMMARY FOR MISSOURI
NATIONAL WEATHER SERVICE SPRINGFIELD MO
1100 AM CDT MON MAR 30 2015

NOTE: "FAIR" INDICATES FEW OR NO CLOUDS BELOW 12,000 FEET WITH NO
       SIGNIFICANT WEATHER AND/OR OBSTRUCTIONS TO VISIBILITY.
       CURRENT SKY AND/OR WEATHER CONDITIONS ARE NOT AVAILABLE FOR
       CHILLICOTHE AND FARMINGTON.

MOZ001>031-035>038-043-044-053-054-301700-
...NORTHERN AND WESTERN MISSOURI...

CITY           SKY/WX    TMP DP  RH WIND       PRES   REMARKS
KANSAS CTY INT MOSUNNY   62  32  32 SW15      30.15F
KANSAS C DTWN  SUNNY     64  30  27 S8        30.15F
LEE`S SUMMIT   SUNNY     61  32  33 S9        30.16F
CHILLICOTHE      N/A     60  40  47 S6        30.15F
KIRKSVILLE     SUNNY     60  30  32 SW10G16   30.15F

$$
MOZ066>068-077>081-088>096-101>105-301700-
...SOUTHWEST MISSOURI...

CITY           SKY/WX    TMP DP  RH WIND       PRES   REMARKS
SPRINGFIELD    SUNNY     60  32  34 SE8       30.21F
JOPLIN         SUNNY     61  34  36 SE8       30.22R

$$
MOZ032>034-039>042-045>050-055>058-069>072-301700-
...CENTRAL MISSOURI...

CITY           SKY/WX    TMP DP  RH WIND       PRES   REMARKS
COLUMBIA       SUNNY     60  31  33 SW9       30.19F
JEFFERSON CITY SUNNY     58  34  40 S5        30.20F
ROLLA          MOSUNNY   58  32  37 CALM      30.20R
SEDALIA        SUNNY     62  37  39 S8        30.19F
WHITEMAN AFB   SUNNY     61  37  40 S8        30.17F
WARRENSBURG    SUNNY     61  32  33 S7        30.18F
OSAGE BEACH    MOSUNNY   57  34  41 S5        30.21R

$$
MOZ051-052-059>065-301700-
...EAST CENTRAL MISSOURI...

CITY           SKY/WX    TMP DP  RH WIND       PRES   REMARKS
ST LOUIS INTL  MOSUNNY   61  28  28 SW6       30.20R
SPIRIT OF STL  SUNNY     60  29  30 VRB5      30.20S
ST CHARLES     SUNNY     58  35  42 SW9       30.19S

$$
MOZ072>076-082>087-097>100-106>115-301700-
...SOUTH CENTRAL AND SOUTHEAST MISSOURI...

CITY           SKY/WX    TMP DP  RH WIND       PRES   REMARKS
CAPE GIRARDEAU PTSUNNY   58  37  45 NE3       30.23S
FARMINGTON     PTSUNNY   55  30  38 SE3       30.26R
POPLAR BLUFF   SUNNY     59  39  47 E8        30.23R
WEST PLAINS    SUNNY     59  33  37 E5        30.23S

$$


USA.gov is the U.S. government's official web portal to all federal, state and local government web resources and services.